Home   Weather   Halton Hills   Past weeks

Flag for Canada Past Weather in Halton Hills, Ontario, Canada — Yesterday and Last 2 Weeks

Now
34 °F

Light rain. Overcast.


Feels Like: 28 °F
Forecast: 29 / 34 °F
Wind: 7 mph from East

Location: Toronto Pearson International Airport

Current Time: Jan 17, 2017 at 6:19:31 am

Latest Report: Jan 17, 2017 at 5:36 am


Visibility: 8 mi

Pressure: 30.13 "Hg

Humidity: 87%

Dew Point: 30 °F

Location of Halton HillsLocation

Past Weather in Halton Hills — Graph

°F

Halton Hills Temperature Yesterday

Maximum temperature yesterday: 37 °F (at 3:00 pm)
Minimum temperature yesterday: 21 °F (at 12:00 am)
Average temperature yesterday: 29 °F

High & Low Weather Summary for the Past Weeks

 TemperatureHumidityPressure
High48 °F (Jan 12, 3:44 am)100% (Jan 2, 11:28 pm)30.81 "Hg (Jan 2, 11:28 pm)
Low7 °F (Jan 7, 5:00 am)37% (Jan 8, 4:00 pm)29.42 "Hg (Jan 4, 5:00 am)
Average27 °F74%30.11 "Hg
* Reported Jan 2 5:00 am — Jan 17 5:00 am, Halton Hills, Weather by CustomWeather, © 2017

Note: Actual official high and low records may vary slightly from our data, if they occured in-between our weather recording intervals... More about our weather records

Advertising

Halton Hills Weather History for the Previous 24 Hours

Scroll right to see more
 ConditionsComfort  
Time TempWeatherWind HumidityBarometerVisibility
5:00 am
Tue, Jan 17
34 °FLight freezing rain. Mostly cloudy.3 mph87%30.14 "Hg8 mi
4:00 am32 °FLight freezing rain. Mostly cloudy.3 mph80%30.16 "Hg10 mi
3:00 am34 °FLight rain. Mostly cloudy.5 mph65%30.18 "Hg10 mi
2:10 am34 °FLight rain. Overcast.2 mph65%30.19 "Hg10 mi
2:00 am32 °FMostly cloudy.2 mph69%30.19 "Hg12 mi
1:00 am32 °FPartly cloudy.2 mph64%30.19 "Hg15 mi
12:00 am34 °FMostly cloudy.2 mph60%30.22 "Hg15 mi
11:00 pm
Mon, Jan 16
34 °FPassing clouds.No wind60%30.24 "Hg15 mi
10:00 pm32 °FPassing clouds.2 mph60%30.25 "Hg15 mi
9:00 pm32 °FPartly cloudy.No wind64%30.26 "Hg15 mi
8:00 pm32 °FPartly cloudy.6 mph64%30.27 "Hg15 mi
7:00 pm34 °FOvercast.2 mph56%30.28 "Hg15 mi
6:00 pm36 °FPassing clouds.No wind52%30.28 "Hg15 mi
5:00 pm34 °FPartly sunny.2 mph56%30.28 "Hg15 mi
4:00 pm36 °FPartly sunny.7 mph52%30.28 "Hg12 mi
3:00 pm37 °FPartly sunny.7 mph48%30.27 "Hg12 mi
2:00 pm36 °FBroken clouds.12 mph52%30.28 "Hg12 mi
1:00 pm36 °FBroken clouds.14 mph56%30.31 "Hg12 mi
12:00 pm36 °FPartly sunny.13 mph60%30.33 "Hg12 mi
11:00 am32 °FPartly sunny.10 mph69%30.36 "Hg12 mi
10:00 am30 °FPartly sunny.12 mph75%30.36 "Hg15 mi
9:00 am27 °FScattered clouds.3 mph74%30.37 "Hg12 mi
8:00 am23 °FPassing clouds.9 mph80%30.36 "Hg10 mi
7:00 am23 °FPassing clouds.2 mph80%30.36 "Hg12 mi
6:00 am23 °FClear.6 mph80%30.36 "Hg12 mi
Weather by CustomWeather, © 2017

See weather overviewHow to use our weather pages